User: anonymous   Login
Location: Unspecified
(0.0000°N, 0.0000°E)
Time: 06:46:02
(UTC+00:00)
Language:

STARLINK-33579 - Orbit

View from above orbital plane
View from above orbital plane
View from above satellite
View from above satellite

Ground track
Ground track

The orbit is defined by the following mean orbital elements,

1 62764U          26145.46568106 +.00000000 +00000-0 +83498-3 0 00007
2 62764  53.1587 325.2907 0002004  83.7781 276.3448 15.31722856    08
Epoch (UTC): 25 May 2026 11:10:34
Eccentricity: 0.0002004
inclination: 53.1587°
perigee height: 469 km
apogee height: 472 km
right ascension of ascending node: 325.2907°
argument of perigee: 83.7781°
revolutions per day: 15.31722856
mean anomaly at epoch: 276.3448°

The dashed part of the orbit path shows where the satellite is in the earth's shadow,  

DLR